Погода в Ноемберяне

Армения     41°10′23″N   44°59′54″E
темп.,
°C
ветер,
м/с
пор.,
м/с
влажн.,
%
обл.,
%
осадки,
мм/ч
давл.,
гПа
погр.,
м
25 февраля, чт
чт2501:00−6всв3391100 0.6 1037309
04:00−6всв2291100 0.9 1037243
07:00−6св1190100 0.2 1038220
10:00−5ссв118186 0.3 1036421
13:00−3ссв216896 0.0 1034652
16:00−1всв216366 0.0 1032579
19:00−3в11750 0.0 103323
22:00−3зюз11780 0.0 103421
26 февраля, пт
пт2601:00−3зюз117814 0.0 103321
04:00−3зсз117853 0.0 103222
07:00−3з12735 0.0 103121
10:00+1с11552 0.0 1030226
13:00+4ссв214718 0.0 1027575
16:00+5в214833 0.0 1025628
19:00+2юв1163100 0.0 102722
22:00+1з0071100 0.0 102822
27 февраля, сб
сб2701:000ююз007665 0.0 102722
04:00−1зюз117733 0.0 102621
07:00−1зюз11740 0.0 102521
10:00+3с11600 0.0 1024242
13:00+6св21530 0.0 1021596
16:00+7всв11480 0.0 1019676
19:00+5юв11590 0.0 101922
22:00+4юз22660 0.0 102124
28 февраля, вс
вс2801:00+3юз22640 0.0 102026
04:00+2юз22610 0.0 102025
07:00+1зюз22550 0.0 101926
10:00+5сз12430 0.0 1018259
13:00+9ссв21390 0.0 1015512
16:00+10св21350 0.0 1014831
19:00+7вюв12470 0.0 101523
22:00+4вюв11650 0.0 101723
1 марта, пн
пн101:00+3юз22630 0.0 101831
04:00+3сз126250 0.0 101931
07:00+3ююв1165100 0.1 102128
10:00+5зсз1162100 0.1 1022481
13:00+8сз354149 0.0 10221604
16:00+9ссз553245 0.0 10212075
19:00+5с384439 0.0 1024369
22:00+3юв115619 0.0 102722